Regional Weather Roundup
Issued by NWS Mt. Holly, NJ

Home | Current Version | Previous Version | Text Only | Print | Product List | Glossary On
Versions: 1 2 3 4 5 6 7 8 9 10 11 12 13 14 15 16 17 18 19 20 21 22 23 24 25 26 27
000
ASUS41 KPHI 241010
RWRPHI

REGIONAL WEATHER ROUNDUP
NATIONAL WEATHER SERVICE MOUNT HOLLY NJ
600 AM EDT THU APR 24 2014

NOTE:  "FAIR" INDICATES FEW OR NO CLOUDS BELOW 12,000 FEET WITH NO
SIGNIFICANT WEATHER AND/OR OBSTRUCTIONS TO VISIBILITY.

 * = STATION DOES NOT REPORT PRECIPITATION (E.G. RAIN, SNOW, ETC.)
        OR FOG.

NJZ015>026-241100-
SOUTHERN NEW JERSEY

CITY           SKY/WX    TMP DP  RH WIND       PRES   REMARKS
POMONA         CLEAR     41  26  55 W13       29.95R
RIO GRANDE*    CLEAR     46  27  46 NW13G18   29.99R
MILLVILLE      CLEAR     41  28  60 W9        29.98R
WRIGHTSTOWN    CLEAR     40  23  49 W13       29.91R WCI  33
MOUNT HOLLY    CLEAR     42  22  44 W8        29.95R
TRENTON        CLEAR     41  21  44 NW8       29.93R

$$
NJZ001>014-241100-
NORTHERN NEW JERSEY

CITY           SKY/WX    TMP DP  RH WIND       PRES   REMARKS
SUSSEX         CLEAR     40  18  41 VRB6      29.89R
ANDOVER*         N/A     37  18  46 N6        29.91R WCI  32
MORRISTOWN     CLEAR     43  18  36 NW3       29.90R
NEWARK         CLEAR     42  20  41 NW12G20   29.88R
TETERBORO      CLEAR     43  20  39 NW7       29.86R
CALDWELL       CLEAR     41  18  39 NW10      29.89R
SOMERVILLE     CLEAR     41  18  39 NW8       29.90R
ALLAIRE*       CLEAR     41  21  45 NW10      29.89R
TOMS RIVER*    CLEAR     39  27  60 W7        29.92R WCI  34

$$
PAZ043-044-047-054-055-060>062-066>071-241100-
EASTERN PENNSYLVANIA

CITY           SKY/WX    TMP DP  RH WIND       PRES   REMARKS
PHILADELPHIA   CLEAR     45  18  34 W12       29.98R
NORTH PHILA    CLEAR     43  19  38 NW7       29.97R
BLUE BELL      CLEAR     41  23  48 CALM      29.96R
DOYLESTOWN     CLEAR     38  19  46 W9        29.94R WCI  31
QUAKERTOWN*    CLEAR     39  18  41 W7        29.96R WCI  34
POTTSTOWN      CLEAR     38  20  48 W6        29.99R WCI  33
LANCASTER      CLEAR     36  19  50 W8        30.01R WCI  30
COATESVILLE    CLEAR     36  19  51 NW12      29.99R WCI  27
READING        CLEAR     39  17  41 W8        29.99R WCI  33
ALLENTOWN      CLEAR     40  17  39 NW10      29.96R WCI  33
MOUNT POCONO   CLEAR     32  17  54 NW14G22   29.87R WCI  22
HAZLETON       CLEAR     34  14  44 NW16G23   29.95R WCI  23
WILKES BARRE   CLEAR     34  18  52 W8        29.96R WCI  27

$$
DEZALL-MDZ008-012-015-019-020-241100-
DELAWARE AND EASTERN MARYLAND

CITY           SKY/WX    TMP DP  RH WIND       PRES   REMARKS
WILMINGTON     CLEAR     40  27  59 W9        30.01R WCI  34
DOVER          CLEAR     42  28  58 W12       29.97R
GEORGETOWN     CLEAR     42  29  59 W5        30.01R
EASTON         CLEAR     45  31  58 NW10G16   30.07R
PATUXENT       CLEAR     44  27  51 W10       30.04R
OCEAN CITY     CLEAR     41  30  65 W5        30.00R
WALLOPS ISLAND CLEAR     45  32  60 NW7       30.03R
CAMBRIDGE      CLEAR     48  30  49 NW7G17    30.03R
SALISBURY      CLEAR     46  30  53 NW8       30.02R

$$
PAZ001-021-NYZ056-072-MDZ011-DCZ001-241100-
OTHER NEARBY LOCATIONS

CITY           SKY/WX    TMP DP  RH WIND       PRES   REMARKS
HARRISBURG     CLEAR     42  17  36 NW9       30.03R
STATE COLLEGE  CLEAR     36  18  48 NW5       30.05R WCI  32
WILLIAMSPORT   CLEAR     37  16  42 W9        30.03R WCI  30
BINGHAMTON     CLEAR     31  19  61 NW10      29.94R WCI  22
NEW YORK CITY  CLEAR     43  19  38 NW12G24   29.88R
BALTIMORE      CLEAR     39  27  62 W9        30.04R WCI  33
WASHINGTON DC  CLEAR     46  24  42 NW9       30.07R

$$



USA.gov is the U.S. government's official web portal to all federal, state and local government web resources and services.